Погода в Шиели

Погода в Шиели : погода сейчас, прогноз погоды и архив. Всё, что Вы хотите узнать о погоде в Шиели!

Хотите узнать прогноз погоды в Шиели? Тогда Вам сюда: Погода в Шиели

Поиск расширенной информации на нашем сайте:

Другие новости

Новости СМИ2

Главная страница сайта

Новости сайта

03.07.2017

Напоминаем, что на нашем специализированном сайте Метеоцентр.Азия вы можете получить высокодетализированные автоматические прогнозы погоды по пунктам России, СНГ и мира в авиационном формате (включающие направление и скорость ветра, видимость, явления погоды, количество и форму облачности, нижнюю и верхнюю границу облачности).


Погода в Шиели - сегодня

Время (UTC), дата Ветер
(°,м/с) 
Видим.   Явления Облачность Т
(°С)
Тd
(°С)
f(%) Тe
(°С)
Pmin
(гПа)
dP
(гПа)
Po
(мм)
O2
(г/м3)
Тmin Tmax R s Состояние
почвы
06 20.09.17 030 (СВ) 20000 м    ясно 
+26.6 +3.2 22 +27  1018  -0.2  750  275  +12.2         
09 20.09.17 020 (С) 20000 м    ясно 
+28.4 +1.1 17 +28  1016.6  -1.2  749  273           
12 20.09.17 060 (СВ) 20000 м    ясно 
+28.6 +1.5 17 +29  1015.6  -1  749  273           
15 20.09.17 030 (СВ) н/о    ясно 
+23 +6.1 34 +23  1016  0.1  749  277    +30.2       
18 20.09.17 010 (С) н/о    ясно 
+21.3 +6.8 39 +21  1015.5  -0.6  748  279    +30.2       
21 20.09.17 030 (СВ) н/о    ясно 
+19.1 +4.4 38 +20  1014.5  -1  748  281           
00 21.09.17 020 (С) н/о    ясно 
+15.9 +4.9 48 +16  1014  -0.8  747  284           
03 21.09.17 040 (СВ) 20000 м    ясно 
+19.8 +5.9 40 +21  1013.8  0.1  747  280           
06 21.09.17 070 (В) 8{16}  20000 м  пыльный позёмок  ясно 
+26.8 +2.9 21 +27  1013.2  -0.3  747  274  +15.4         
09 21.09.17 040 (СВ) 7{16}  20000 м  пыльный позёмок  ясно 
+28.3 +1.7 18 +28  1011.8  -1.3  746  272           
12 21.09.17 050 (СВ) 20000 м    ясно 
+28.2 +2.1 19 +28  1011.5  -0.3  746  272           
15 21.09.17 070 (В) н/о    ясно 
+24.5 +5.1 29 +25  1011.8  0.1  746  275    +29       
18 21.09.17 030 (СВ) н/о    ясно 
+21.5 +5.5 35 +22  1012.1  0.2  746  278    +29       
21 21.09.17 310 (СЗ) н/о    ясно 
+17 +5.1 45 +18  1011.7  -0.7  745  282           
00 22.09.17 тихо ()   н/о    ясно 
+15.4 +5 50 +15  1011.6  -0.2  745  283           
03 22.09.17 350 (С) 20000 м    ясно 
+17.8 +5 43 +19  1011.9  0.4  745  281           
06 22.09.17 080 (В) 20000 м    ясно 
+28.2 +4.6 22 +28  1011.1  -0.2  745  271  +14.2         
09 22.09.17 090 (В) 20000 м    ясно 
+31.3 +3 17 +31  1010  -0.8  745  269           
12 22.09.17 050 (СВ) 20000 м    ясно 
+30.4 +3.6 18 +30  1009.7  -0.4  744  269           
15 22.09.17 020 (С) н/о    ясно 
+21.3 +2.3 28 +21  1011.1  0.9  745  278    +32.2       
18 22.09.17 010 (С) н/о    ясно 
+18.3 +3.2 37 +19  1011.6  0.2  745  281    +32.2       
21 22.09.17 350 (С) н/о    ясно 
+16.9 +3.6 41 +18  1011.7  745  282           
00 23.09.17 010 (С) н/о    ясно 
+13.9 +3.6 50 +15  1013.4  1.6  746  286           
03 23.09.17 330 (СЗ) 20000 м    ясно 
+14.5 +0.4 38 +15  1015.4  748  286           
06 23.09.17 340 (С) 20000 м    ясно 
+20.3 +2.3 30 +20  1017  1.9  749  281  +13.4         
Время (UTC), дата Ветер
(°,м/с) 
Видим.   Явления Облачность Т
(°С)
Тd
(°С)
f(%) Тe
(°С)
Pmin
(гПа)
dP
(гПа)
Po
(мм)
O2
(г/м3)
Тmin Tmax R s Состояние
почвы

Для получения пояснительной информации подведите курсор к названию столбца.

ПОГОДА в Шиели - архив

Всё, что Вы хотите узнать о погоде в Шиели - удобно и подробно!

Выберите нужную дату (начиная с 1 января 2015* года) и нажмите кнопку "Найти".
Будут отображены архивные сводки погоды по пункту Шиели, начиная с указанной даты.


Отображать данные в формате CSV (для использования в таблицах Excel)


Внимание! Наш архив погоды предназначен исключительно для личного некоммерческого использования в познавательных целях. Если Вам необходимы официальные справки о состоянии погоды (для производственных, юридических, коммерческих и т.п. целей), обращайтесь в органы Росгидромета.

*Примечание: данная дата относится к архиву по метеостанциям СССР (Россия, СНГ, Балтия).
Архив по метеостанциям Зарубежной Европы и Азии (кроме Китая) хранится 10 дней, по другим регионам земного шара (Китай, Африка, Америка, Австралия, Океания) - 1 день.

Шиели - район местоположения метеостанции


Название, широта, долгота, высота метеостанции:
Шиели (Чиили) 44.2°ш. 66.8°д. 153 м над ур. моря [Казахстан]

Дополнительная информация

В oтличие oт бoльшинства пoгoдных сайтoв мы публикуем пoдрoбную метеoинфoрмацию в детальнoм прoфессиoнальнoм фoрмате.

Характеристики температуры и влажнoсти вoздуха измеряются на высoте 2 м в тени вдали oт зданий и деревьев.
Скoрoсть ветра измеряется на высoте 10 м (на урoвне рoста челoвека скoрoсть ветра ниже в 1.5-2 раза). Если метеoстанция нахoдится в гoрoде или в лесу, тo скoрoсть ветра занижена на 2-4 м/с пo сравнению с oткрытым местoм. Скoрoсть ветра над акватoриями крупных рек и oзёр, а также на вершинах хoлмoв на 2-5 м/с выше, чем в oбычных услoвиях.
Атмoсфернoе давление в разных тoчках местнoсти мoжет значительнo oтличаться oт давления на метеoстанции, в зависимoсти oт услoвий рельефа (при пoдъёме на 10 м давление пoнижается примернo на 1 мм рт.ст.).